Погода в Цареве

Россия / Волгоградская область     48°39′52″N   45°22′19″E
темп.,
°C
ветер,
м/с
пор.,
м/с
влажн.,
%
обл.,
%
осадки,
мм/ч
давл.,
гПа
погр.,
м
19 сентября, вс
вс1900:00+11в4105094 0.0 1020233
03:00+11в5105117 0.0 1021268
06:00+10в5115151 0.0 1021239
09:00+17вюв793737 0.0 1020684
12:00+21юв782872 0.0 10191739
15:00+22юв782773 0.0 10182167
18:00+19вюв7113561 0.0 1017352
21:00+16вюв8154198 0.0 1017460
20 сентября, пн
пн2000:00+16юв71344100 0.0 1017495
03:00+14юв61455100 0.0 1016444
06:00+14юв61155100 0.0 1016436
09:00+15юв61154100 0.1 1015511
12:00+20юв7937100 0.0 1014895
15:00+24ююв573617 0.1 10131791
18:00+21юв35509 0.3 1012108
21:00+18ююв35582 0.6 101386
21 сентября, вт
вт2100:00+16юз23777 0.2 101320
03:00+14ююз118529 0.8 101311
06:00+15ююз2280100 0.0 101312
09:00+21ююв345175 0.0 1013376
12:00+26ююз683498 0.0 10122315
15:00+23з3445100 0.1 1011289
18:00+19сз4661100 0.2 1012307
21:00+16ссв4781100 0.3 1011258
22 сентября, ср
ср2200:00+14сз3494100 5.8 1011198
03:00+15в1192100 15.3 1010106
06:00+14сз578884 0.3 1011449
09:00+14зсз557541 0.4 1013579
12:00+17зсз445462 0.0 10131272
15:00+18зюз3343100 0.0 10131631
18:00+15зюз3449100 0.0 101564
21:00+13з33560 0.0 101645
23 сентября, чт
чт2300:00+12зсз22620 0.0 101621
03:00+11сз226695 0.0 101611
06:00+11ссз226817 0.0 101611
09:00+14ссв115493 0.0 1016182
12:00+18всв334439 0.0 1015951
15:00+21св3544100 0.0 10131379
18:00+19в61145100 0.0 1012381
21:00+17в6124295 0.0 1011472